This demonstration page uses our WeatherBlox Daily Observations layout. Learn more.

Left ArrowRight Arrow

Hourly Observations for December 8, 2015

Temp ( °F °C ) Dew Point ( °F °C ) Humidity (%) Winds ( mph kmh ) Pressure ( in mb ) Visibility ( mi km ) Precip ( " mm )
12:58 am 00:58 Clear 28 -2.4 27 -2.8 97 97 Calm 29.94 1014 10 16 0.00 0.00
1:58 am 01:58 Clear 29 -1.6 28 -2.5 94 94 SSE 3 6 29.88 1012 10 16 0.00 0.00
2:58 am 02:58 Clear 28 -2.4 27 -2.9 96 96 Calm 29.88 1012 10 16 0.00 0.00
3:58 am 03:58 Clear 29 -1.8 28 -2.4 96 96 S 1 2 29.83 1010 10 16 0.00 0.00
4:58 am 04:58 Clear 30 -1.2 28 -2.2 93 93 SE 2 4 29.81 1010 10 16 0.00 0.00
5:58 am 05:58 Partly Cloudy 35 1.4 31 -0.6 87 87 SSE 3 6 29.79 1009 10 16 0.00 0.00
6:58 am 06:58 Cloudy 35 1.4 31 -0.5 87 87 SSE 8 13 29.79 1009 10 16 0.00 0.00
7:58 am 07:58 Cloudy 37 2.9 32 -0.1 81 81 ESE 6 9 29.76 1008 10 16 0.00 0.00
8:58 am 08:58 Mostly Sunny 39 3.7 33 0.4 79 79 E 8 13 29.77 1008 10 16 0.00 0.00
9:58 am 09:58 Partly Cloudy 40 4.5 34 1.1 79 79 SE 12 19 29.74 1007 10 16 0.00 0.00
10:58 am 10:58 Mostly Sunny 43 6 35 1.8 75 75 ESE 5 7 29.73 1007 10 16 0.00 0.00
11:58 am 11:58 Mostly Sunny 48 9.1 36 2.4 63 63 VRB 5 7 29.70 1006 10 16 0.00 0.00
12:58 pm 12:58 Mostly Sunny 53 11.4 34 1.1 49 49 W 12 19 29.68 1005 10 16 0.00 0.00
1:58 pm 13:58 Sunny 54 12.2 35 1.4 48 48 WNW 10 17 29.67 1005 10 16 0.00 0.00
2:58 pm 14:58 Sunny 53 11.6 36 2.3 53 53 NW 10 17 29.70 1006 10 16 0.00 0.00
3:58 pm 15:58 Sunny 53 11.4 37 2.5 55 55 W 5 7 29.71 1006 10 16 0.00 0.00
4:58 pm 16:58 Clear 49 9.7 37 2.5 61 61 SSW 2 4 29.73 1007 10 16 0.00 0.00
5:58 pm 17:58 Mostly Clear 45 7.2 35 1.9 69 69 W 6 9 29.76 1008 10 16 0.00 0.00
6:58 pm 18:58 Mostly Cloudy 39 3.7 34 1.2 84 84 Calm 29.78 1008 10 16 0.00 0.00
7:58 pm 19:58 Cloudy 42 5.4 37 3 85 85 Calm 29.78 1009 10 16 0.00 0.00
8:58 pm 20:58 Clear 39 3.9 35 1.5 85 85 WSW 2 4 29.78 1009 10 16 0.00 0.00
9:58 pm 21:58 Clear 38 3.1 34 1.2 88 88 WNW 8 13 29.79 1009 10 16 0.00 0.00
10:58 pm 22:58 Clear 40 4.6 36 2 83 83 WNW 10 17 29.79 1009 10 16 0.00 0.00
11:58 pm 23:58 Clear 40 4.4 36 2 85 85 WNW 8 13 29.81 1010 10 16 0.00 0.00

Powered by AerisWeather